Time,TemperatureF,DewpointF,PressureIn,WindDirection,WindDirectionDegrees,WindSpeedMPH,WindSpeedGustMPH,Humidity,HourlyPrecipIn,Conditions,Clouds,dailyrainin,SoftwareType,DateUTC
2013-11-13 00:21:00,39.0,37.0,30.28,SE,136,0.0,0.0,94,0.00,,,0.01,,2013-11-13 07:21:00,
2013-11-13 00:41:00,39.0,37.0,30.28,SE,136,0.0,1.0,94,0.00,,,0.01,,2013-11-13 07:41:00,
2013-11-13 00:52:00,38.0,36.0,30.28,SE,136,0.0,2.0,94,0.00,,,0.01,,2013-11-13 07:52:00,
2013-11-13 01:22:00,38.0,37.0,30.28,WSW,257,0.0,0.0,95,0.01,,,0.02,,2013-11-13 08:22:00,
2013-11-13 01:42:00,38.0,37.0,30.27,WSW,257,0.0,0.0,95,0.01,,,0.02,,2013-11-13 08:42:00,
2013-11-13 01:52:00,38.0,37.0,30.27,WSW,257,0.0,0.0,95,0.01,,,0.02,,2013-11-13 08:52:00,
2013-11-13 02:21:00,38.0,37.0,30.27,WSW,257,0.0,1.0,96,0.00,,,0.02,,2013-11-13 09:21:00,
2013-11-13 02:43:00,38.0,37.0,30.27,WSW,257,0.0,0.0,96,0.00,,,0.02,,2013-11-13 09:43:00,
2013-11-13 02:52:00,38.0,37.0,30.26,WSW,257,0.0,0.0,96,0.00,,,0.02,,2013-11-13 09:52:00,
2013-11-13 03:23:00,37.0,36.0,30.26,SW,234,0.0,2.0,96,0.00,,,0.02,,2013-11-13 10:23:00,
2013-11-13 03:42:00,37.0,36.0,30.26,SW,234,0.0,0.0,97,0.00,,,0.02,,2013-11-13 10:42:00,
2013-11-13 03:52:00,37.0,36.0,30.25,SW,234,0.0,1.0,97,0.00,,,0.02,,2013-11-13 10:52:00,
2013-11-13 04:22:00,36.0,35.0,30.25,SW,234,0.0,0.0,97,0.00,,,0.02,,2013-11-13 11:22:00,
2013-11-13 04:42:00,36.0,35.0,30.25,SW,234,0.0,0.0,97,0.00,,,0.02,,2013-11-13 11:42:00,
2013-11-13 04:52:00,36.0,35.0,30.25,SW,234,0.0,0.0,97,0.00,,,0.02,,2013-11-13 11:52:00,
2013-11-13 05:22:00,36.0,35.0,30.25,SW,234,0.0,0.0,98,0.00,,,0.02,,2013-11-13 12:22:00,
2013-11-13 05:41:00,36.0,35.0,30.25,SW,234,0.0,0.0,98,0.00,,,0.02,,2013-11-13 12:41:00,
2013-11-13 05:52:00,37.0,36.0,30.23,SW,234,0.0,2.0,98,0.00,,,0.02,,2013-11-13 12:52:00,
2013-11-13 06:21:00,37.0,36.0,30.23,SW,234,0.0,0.0,98,0.00,,,0.01,,2013-11-13 13:21:00,
2013-11-13 06:41:00,37.0,36.0,30.23,SW,234,0.0,1.0,98,0.00,,,0.01,,2013-11-13 13:41:00,
2013-11-13 06:52:00,37.0,36.0,30.23,SW,234,1.0,2.0,98,0.00,,,0.01,,2013-11-13 13:52:00,
2013-11-13 07:22:00,38.0,37.0,30.23,SW,234,0.0,1.0,98,0.00,,,0.01,,2013-11-13 14:22:00,
2013-11-13 07:42:00,38.0,37.0,30.23,SW,234,0.0,0.0,98,0.00,,,0.01,,2013-11-13 14:42:00,
2013-11-13 07:52:00,38.0,37.0,30.22,SW,234,0.0,0.0,98,0.00,,,0.01,,2013-11-13 14:52:00,
2013-11-13 08:21:00,38.0,37.0,30.23,SSW,198,0.0,2.0,98,0.00,,,0.01,,2013-11-13 15:21:00,
2013-11-13 08:43:00,38.0,37.0,30.22,SE,141,0.0,3.0,98,0.00,,,0.01,,2013-11-13 15:43:00,
2013-11-13 08:53:00,38.0,37.0,30.24,SE,141,0.0,1.0,98,0.00,,,0.01,,2013-11-13 15:53:00,
2013-11-13 09:22:00,38.0,38.0,30.24,SSE,150,0.0,3.0,99,0.00,,,0.01,,2013-11-13 16:22:00,
2013-11-13 09:42:00,39.0,39.0,30.24,SSW,196,0.0,0.0,99,0.00,,,0.01,,2013-11-13 16:42:00,
2013-11-13 09:53:00,39.0,39.0,30.22,SE,145,0.0,2.0,99,0.00,,,0.01,,2013-11-13 16:53:00,
2013-11-13 10:22:00,41.0,41.0,30.22,SE,145,0.0,0.0,99,0.00,,,0.01,,2013-11-13 17:22:00,
2013-11-13 10:52:00,44.0,42.0,30.20,SE,136,1.0,5.0,93,0.00,,,0.01,,2013-11-13 17:52:00,
2013-11-13 11:23:00,49.0,40.0,30.22,SSE,159,2.0,10.0,71,0.00,,,0.01,,2013-11-13 18:23:00,
2013-11-13 11:42:00,49.0,38.0,30.21,South,191,2.0,9.0,66,0.00,,,0.01,,2013-11-13 18:42:00,
2013-11-13 11:52:00,49.0,40.0,30.21,WNW,288,1.0,5.0,70,0.00,,,0.01,,2013-11-13 18:52:00,
2013-11-13 12:11:00,48.0,41.0,30.22,WNW,288,0.0,2.0,77,0.00,,,0.01,,2013-11-13 19:11:00,
2013-11-13 12:21:00,47.0,40.0,30.22,WNW,284,1.0,5.0,76,0.00,,,0.01,,2013-11-13 19:21:00,
2013-11-13 12:42:00,47.0,40.0,30.22,WNW,286,0.0,1.0,76,0.00,,,0.01,,2013-11-13 19:42:00,
2013-11-13 12:52:00,48.0,38.0,30.21,WSW,247,1.0,4.0,67,0.00,,,0.01,,2013-11-13 19:52:00,
2013-11-13 13:21:00,46.0,40.0,30.22,NNW,342,0.0,3.0,79,0.00,,,0.01,,2013-11-13 20:21:00,
2013-11-13 13:52:00,46.0,40.0,30.21,NW,319,0.0,2.0,78,0.00,,,0.01,,2013-11-13 20:52:00,
2013-11-13 14:21:00,47.0,37.0,30.21,SW,223,3.0,6.0,67,0.00,,,0.01,,2013-11-13 21:21:00,
2013-11-13 14:43:00,50.0,37.0,30.20,West,274,3.0,9.0,61,0.00,,,0.01,,2013-11-13 21:43:00,
2013-11-13 14:53:00,50.0,36.0,30.19,SW,221,1.0,5.0,58,0.00,,,0.01,,2013-11-13 21:53:00,
2013-11-13 15:23:00,49.0,35.0,30.20,SW,234,1.0,5.0,59,0.00,,,0.01,,2013-11-13 22:23:00,
2013-11-13 15:42:00,48.0,34.0,30.22,WSW,251,1.0,4.0,59,0.00,,,0.01,,2013-11-13 22:42:00,
2013-11-13 15:53:00,48.0,35.0,30.23,West,276,0.0,4.0,61,0.00,,,0.01,,2013-11-13 22:53:00,
2013-11-13 16:22:00,47.0,34.0,30.24,West,270,0.0,3.0,60,0.00,,,0.01,,2013-11-13 23:22:00,
2013-11-13 16:42:00,47.0,34.0,30.22,WSW,257,0.0,3.0,61,0.00,,,0.01,,2013-11-13 23:42:00,
2013-11-13 16:52:00,46.0,34.0,30.22,WSW,257,0.0,3.0,63,0.00,,,0.01,,2013-11-13 23:52:00,
2013-11-13 17:22:00,46.0,35.0,30.21,South,169,2.0,5.0,64,0.00,,,0.01,,2013-11-14 00:22:00,
2013-11-13 17:42:00,46.0,35.0,30.22,SE,145,1.0,4.0,64,0.00,,,0.01,,2013-11-14 00:42:00,
2013-11-13 17:52:00,45.0,34.0,30.22,SE,142,1.0,5.0,65,0.00,,,0.01,,2013-11-14 00:52:00,
2013-11-13 18:21:00,45.0,34.0,30.22,SSE,153,1.0,4.0,66,0.00,,,0.01,,2013-11-14 01:21:00,
2013-11-13 18:42:00,44.0,33.0,30.22,SE,134,2.0,4.0,66,0.00,,,0.01,,2013-11-14 01:42:00,
2013-11-13 18:52:00,44.0,33.0,30.22,SE,134,2.0,4.0,66,0.00,,,0.01,,2013-11-14 01:52:00,
2013-11-13 19:21:00,44.0,34.0,30.22,SE,138,0.0,2.0,67,0.00,,,0.01,,2013-11-14 02:21:00,
2013-11-13 20:11:00,44.0,33.0,30.24,SE,142,0.0,2.0,66,0.00,,,0.01,,2013-11-14 03:11:00,
2013-11-13 20:21:00,44.0,33.0,30.23,SE,145,1.0,3.0,65,0.00,,,0.01,,2013-11-14 03:21:00,
2013-11-13 20:44:00,44.0,33.0,30.23,SSW,192,0.0,1.0,66,0.00,,,0.01,,2013-11-14 03:44:00,
2013-11-13 20:54:00,44.0,33.0,30.23,South,186,0.0,2.0,65,0.00,,,0.01,,2013-11-14 03:54:00,
2013-11-13 21:24:00,43.0,33.0,30.25,SE,138,0.0,0.0,67,0.00,,,0.01,,2013-11-14 04:24:00,
2013-11-13 21:54:00,42.0,33.0,30.24,SE,138,0.0,1.0,71,0.00,,,0.01,,2013-11-14 04:54:00,
2013-11-13 22:23:00,42.0,32.0,30.23,SE,138,0.0,1.0,68,0.00,,,0.01,,2013-11-14 05:23:00,
2013-11-13 22:44:00,42.0,32.0,30.23,SE,138,0.0,1.0,68,0.00,,,0.01,,2013-11-14 05:44:00,
2013-11-13 22:53:00,42.0,32.0,30.22,SE,138,0.0,0.0,68,0.00,,,0.01,,2013-11-14 05:53:00,
2013-11-13 23:21:00,42.0,33.0,30.21,SE,137,0.0,2.0,69,0.00,,,0.01,,2013-11-14 06:21:00,
2013-11-13 23:52:00,41.0,34.0,30.20,SE,137,1.0,2.0,75,0.00,,,0.01,,2013-11-14 06:52:00,